sat.trackr.live / text

‹ back to catalog

STARLINK-33911

NORAD 63777 · 2025-091C

PAYLOAD ACTIVE UNKNOWN

§ Identity

Operator
Country
US
Launch date
2025-05-02
Launch site
AFETR
Launch vehicle
Mass (kg)
RCS (m²)

Purposes: comms

External: N2YO · Heavens-Above · Gunter

§ Orbital elements

Epoch: 2026-05-24T22:12:28.339200Z

Period
94.27 min
Inclination
43.0029°
Eccentricity
0.0001891
Mean motion
15.27599215 rev/d
Perigee alt
481.7 km
Apogee alt
484.3 km
Semi-major
6,861.1 km
B*
5.4893e-4
RAAN
334.8393°
Arg perigee
285.5138°
Mean anomaly
74.5505°
Rev number
6,064

§ Raw data

STARLINK-339111 63777U 25091C   26144.92532800  .00014883  00000+0  54893-3 0  99982 63777  43.0029 334.8393 0001891 285.5138  74.5505 15.27599215 60642

JSON: /api/v1/satellites/63777 · /tle

For live sub-satellite position, see the globe view (requires WebGL).

§ Visibility from observer

Set your observer location to see the next 7 days of passes ≥ 10°. The values pass through the URL so the page stays shareable.

No JS? Fill the form by hand. The geolocation button needs JavaScript.